[[{"header":{"parameterUnit":"m.s-1","parameterCategory":1,"la1":30.2991,"la2":30.254,"lo1":-89.0895,"lo2":-89.0444,"dy":0.0017,"dx":0.0017,"nx":28,"ny":28,"refTime":"2025-04-20T21:00:00:Z","depth":0,"parameterNumber":2,"parameterNumberName":"U-component_of_WINDS"},"data":[0,0,0,0,0,0,0,0,0,0,0,0,0,0,0,0,0,0,0,0,0,0,0,0,0,0,0,0,0,0,0,0,0,0,0,0,0,0,0,0,0,0,0,0,0,0,0,0,0,0,0,0,0,0,0,0,0,0,-1.4249,-1.4247,0,-1.4082,-1.408,-1.4079,-1.3946,-1.3945,-1.3944,-1.3942,-1.3768,-1.3765,-1.3762,0,0,0,0,0,0,0,0,0,0,0,0,0,-1.445,-1.4447,-1.4249,-1.4247,-1.4245,-1.4083,-1.408,-1.4078,-1.3947,-1.3945,-1.3943,-1.3942,-1.3769,-1.3765,-1.3761,0,0,0,0,0,0,0,0,0,0,0,0,0,-1.4331,-1.4446,-1.4249,-1.416,-1.415,-1.4083,-1.408,-1.4077,-1.3947,-1.3945,-1.3943,-1.3941,-1.3771,-1.3766,-1.3761,-1.3768,0,0,-1.3745,-1.3743,0,0,0,0,0,0,0,0,-1.4338,-1.4324,-1.4175,-1.4166,-1.4155,-1.4033,-1.4087,-1.3974,-1.3947,-1.4024,-1.3942,-1.394,-1.3858,-1.3845,-1.3818,-1.376,-1.3753,-1.3745,-1.3741,-1.3739,-1.3738,0,0,0,0,0,0,0,-1.4346,-1.433,-1.4183,-1.4173,-1.416,-1.4127,-1.4108,-1.4065,-1.3954,-1.4017,-1.4007,-1.3989,-1.3852,-1.3824,-1.3813,-1.375,-1.3745,-1.374,-1.3737,-1.3735,-1.369,-1.3692,0,0,0,0,0,0,-1.4369,-1.4338,-1.4188,-1.4178,-1.4244,-1.4125,-1.4103,-1.4074,-1.3954,-1.3934,-1.3991,-1.3984,-1.3833,-1.3819,-1.3807,-1.3808,-1.3739,-1.3734,-1.3731,-1.3688,-1.369,-1.3692,0,0,0,0,0,0,-1.4374,-1.4357,-1.4195,-1.4255,-1.4232,-1.4123,-1.4091,-1.4072,-1.4043,-1.3934,-1.3913,-1.3983,-1.3831,-1.3814,-1.3779,-1.38,-1.3732,-1.3727,-1.3686,-1.3689,-1.3691,-1.381,0,0,0,0,0,0,-1.438,-1.4359,-1.4362,-1.4256,-1.4229,-1.4171,-1.4093,-1.407,-1.4035,-1.4024,-1.3921,-1.3902,-1.3828,-1.3788,-1.3774,-1.3791,-1.3723,-1.3683,-1.3687,-1.369,-1.3804,-1.3817,-1.3828,0,0,0,0,0,-1.4388,-1.4401,-1.4363,-1.4345,-1.423,-1.4173,-1.4157,-1.4073,-1.4038,-1.4039,-1.3969,-1.3905,-1.38,-1.3785,-1.3769,-1.3785,-1.3682,-1.3686,-1.369,-1.3799,-1.3814,-1.3828,0,0,0,0,0,0,-1.451,-1.4385,-1.4341,-1.4321,-1.4259,-1.4151,-1.4149,-1.4092,-1.4038,-1.4029,-1.3926,-1.3904,-1.3881,-1.3829,-1.3815,-1.3786,-1.3733,-1.3734,-1.3821,-1.3835,-1.3846,-1.3859,-1.3719,0,0,0,0,0,-1.4535,-1.45,-1.4392,-1.4385,-1.4356,-1.4259,-1.423,-1.4171,-1.4102,-1.4075,-1.4002,-1.3936,-1.3888,-1.3858,-1.3808,-1.3796,-1.3772,-1.3799,-1.3811,-1.3822,-1.3824,-1.3814,-1.3825,-1.3706,-1.3706,-1.3706,0,0,-1.4585,-1.4513,-1.4497,-1.4407,-1.4352,-1.4318,-1.4237,-1.4203,-1.4176,-1.4069,-1.4032,-1.3977,-1.3897,-1.3874,-1.386,-1.383,-1.3851,-1.3827,-1.3836,-1.3832,-1.3819,-1.3831,-1.3841,-1.3709,-1.3709,-1.3708,0,0,-1.466,-1.4602,-1.4589,-1.4536,-1.4454,-1.4389,-1.4387,-1.4287,-1.4247,-1.4209,-1.4128,-1.4094,-1.4013,-1.3959,-1.3922,-1.3978,-1.3917,-1.3964,-1.4026,-1.4017,-1.4027,-1.4035,-1.4055,-1.4063,-1.3967,-1.3967,-1.3967,0,-1.4732,-1.4678,-1.4589,-1.4561,-1.4524,-1.4427,-1.4414,-1.4366,-1.4271,-1.4248,-1.4216,-1.4114,-1.4053,-1.4016,-1.403,-1.4003,-1.3996,-1.3975,-1.4033,-1.404,-1.4046,-1.4063,-1.4071,-1.3973,-1.3972,-1.3972,-1.3971,0,-1.4771,-1.4735,-1.4734,-1.4647,-1.461,-1.459,-1.4498,-1.4471,-1.4415,-1.4354,-1.4317,-1.4241,-1.4174,-1.416,-1.4105,-1.4116,-1.41,-1.4053,-1.3996,-1.4065,-1.408,-1.4086,-1.3982,-1.398,-1.3978,-1.3976,0,0,-1.4917,-1.4783,-1.4784,-1.4743,-1.4647,-1.4616,-1.4591,-1.4527,-1.4506,-1.4444,-1.442,-1.4355,-1.4311,-1.4268,-1.4206,-1.4199,-1.4248,-1.4151,-1.4148,-1.4172,-1.4256,-1.4293,-1.4302,-1.4208,-1.4209,-1.421,-1.4263,0,-1.4975,-1.4926,-1.4847,-1.4823,-1.4788,-1.4696,-1.4674,-1.4612,-1.4555,-1.4516,-1.4451,-1.4407,-1.4351,-1.4325,-1.4314,-1.4245,-1.4264,-1.424,-1.4184,-1.4183,-1.4207,-1.431,-1.4348,-1.4402,-1.4268,-1.4269,-1.4269,0,-1.5037,-1.4983,-1.4956,-1.4863,-1.4845,-1.4827,-1.4762,-1.4727,-1.4655,-1.4613,-1.4567,-1.45,-1.4468,-1.4418,-1.4372,-1.4358,-1.433,-1.4293,-1.4293,-1.4284,-1.423,-1.4304,-1.4416,-1.4425,-1.4278,-1.4277,-1.4277,0,-1.5146,-1.5066,-1.504,-1.5008,-1.4898,-1.4888,-1.4842,-1.4768,-1.4735,-1.4678,-1.4655,-1.4595,-1.4562,-1.4517,-1.4435,-1.4406,-1.4398,-1.4341,-1.4362,-1.4365,-1.4364,-1.4365,-1.4475,-1.4348,-1.4347,-1.4347,-1.4347,0,-1.522,-1.5207,-1.5088,-1.5072,-1.5055,-1.4963,-1.4949,-1.4894,-1.4829,-1.48,-1.4716,-1.4691,-1.4585,-1.4547,-1.4482,-1.4454,-1.444,-1.4405,-1.4388,-1.4412,-1.4417,-1.4392,-1.4387,-1.4349,-1.4349,-1.4348,-1.4348,0,-1.5339,-1.5258,-1.5224,-1.5123,-1.5098,-1.509,-1.5003,-1.4984,-1.4922,-1.4887,-1.4873,-1.4776,-1.4727,-1.4641,-1.4567,-1.4523,-1.4508,-1.4479,-1.4533,-1.4523,-1.4549,-1.4548,-1.4646,-1.4654,-1.4523,-1.4524,-1.4526,0,-1.5391,-1.5379,-1.5279,-1.5254,-1.5211,-1.5173,-1.5139,-1.5049,-1.5017,-1.4935,-1.4925,-1.487,-1.4821,-1.4747,-1.4668,-1.4611,-1.458,-1.4618,-1.4571,-1.4596,-1.4581,-1.4583,-1.4581,-1.4629,-1.4631,-1.4633,-1.4634,0,-1.5493,-1.5454,-1.5409,-1.5351,-1.5314,-1.5263,-1.5208,-1.5193,-1.509,-1.5058,-1.5008,-1.497,-1.4896,-1.4842,-1.4774,-1.4724,-1.4662,-1.465,-1.4652,-1.4676,-1.4708,-1.4692,-1.4563,-1.4648,-1.4646,-1.4645,-1.4645,-1.4644,-1.5579,-1.5565,-1.5493,-1.5446,-1.5396,-1.5346,-1.5324,-1.526,-1.5217,-1.515,-1.5099,-1.5053,-1.4981,-1.4883,-1.4838,-1.48,-1.4771,-1.4774,-1.4774,-1.4776,-1.4786,-1.4715,-1.4787,-1.4786,-1.4786,-1.4785,-1.4785,0,-1.5677,-1.5626,-1.5584,-1.5511,-1.5474,-1.5421,-1.5357,-1.533,-1.5291,-1.523,-1.5184,-1.5126,-1.5074,-1.4992,-1.4933,-1.4918,-1.4888,-1.4906,-1.4906,-1.4896,-1.4815,-1.4819,-1.4931,-1.4931,-1.4931,-1.4931,-1.4931,-1.4931,-1.5724,-1.5697,-1.565,-1.5597,-1.5545,-1.5501,-1.5469,-1.5423,-1.5374,-1.5315,-1.5271,-1.5219,-1.5149,-1.5085,-1.5034,-1.5011,-1.4993,-1.502,-1.4989,-1.4915,-1.4901,-1.4888,-1.4892,-1.5017,-1.5017,-1.5072,-1.5073,-1.5073]},{"header":{"parameterUnit":"m.s-1","parameterCategory":1,"la1":30.2991,"la2":30.254,"lo1":-89.0895,"lo2":-89.0444,"dy":0.0017,"dx":0.0017,"nx":28,"ny":28,"refTime":"2025-04-20T21:00:00:Z","depth":0,"parameterNumber":3,"parameterNumberName":"V-component_of_WINDS"},"data":[0,0,0,0,0,0,0,0,0,0,0,0,0,0,0,0,0,0,0,0,0,0,0,0,0,0,0,0,0,0,0,0,0,0,0,0,0,0,0,0,0,0,0,0,0,0,0,0,0,0,0,0,0,0,0,0,0,0,2.8709,2.8708,0,2.8642,2.8641,2.864,2.8569,2.8568,2.8567,2.8567,2.8494,2.8493,2.8492,0,0,0,0,0,0,0,0,0,0,0,0,0,2.8772,2.8771,2.8709,2.8708,2.8707,2.8642,2.8641,2.864,2.857,2.8568,2.8567,2.8566,2.8494,2.8493,2.8492,0,0,0,0,0,0,0,0,0,0,0,0,0,2.8729,2.8771,2.8709,2.8664,2.866,2.8642,2.8641,2.864,2.857,2.8568,2.8567,2.8565,2.8495,2.8493,2.8492,2.8512,0,0,2.8487,2.8486,0,0,0,0,0,0,0,0,2.8731,2.8727,2.8672,2.8667,2.8662,2.8613,2.8637,2.8597,2.857,2.8604,2.8566,2.8565,2.8534,2.853,2.852,2.8509,2.8505,2.8487,2.8486,2.8485,2.8485,0,0,0,0,0,0,0,2.8735,2.8729,2.8682,2.8671,2.8665,2.8646,2.8639,2.8629,2.8578,2.8601,2.8596,2.8589,2.8531,2.8522,2.8518,2.8504,2.8487,2.8486,2.8485,2.8484,2.8505,2.8507,0,0,0,0,0,0,2.8745,2.8732,2.8684,2.868,2.8694,2.8646,2.8638,2.863,2.8578,2.8569,2.859,2.8586,2.8525,2.852,2.8515,2.8535,2.8485,2.8484,2.8483,2.8504,2.8506,2.8507,0,0,0,0,0,0,2.8747,2.8741,2.8687,2.8705,2.8696,2.8647,2.8639,2.8629,2.862,2.857,2.856,2.859,2.8524,2.8517,2.8513,2.8532,2.8483,2.8482,2.8502,2.8504,2.8506,2.8577,0,0,0,0,0,0,2.8749,2.8742,2.8751,2.8706,2.8696,2.8688,2.864,2.8629,2.8618,2.8611,2.8567,2.8558,2.8522,2.8516,2.8512,2.8529,2.8481,2.85,2.8503,2.8506,2.8573,2.8581,2.8588,0,0,0,0,0,2.8751,2.8772,2.8751,2.8746,2.8705,2.869,2.8684,2.8643,2.862,2.8627,2.8595,2.856,2.853,2.8516,2.8511,2.8528,2.8499,2.8502,2.8505,2.8569,2.8579,2.8588,0,0,0,0,0,0,2.882,2.8766,2.8742,2.8749,2.8725,2.8678,2.8686,2.8655,2.8636,2.8631,2.8579,2.8569,2.8572,2.8549,2.8534,2.8544,2.8509,2.8512,2.856,2.8569,2.8577,2.8583,2.8479,0,0,0,0,0,2.8836,2.8829,2.8781,2.8792,2.8781,2.8736,2.8727,2.8698,2.867,2.8659,2.8626,2.8599,2.8584,2.8575,2.8558,2.8568,2.8557,2.8577,2.8585,2.8592,2.8595,2.8598,2.8607,2.8518,2.8518,2.8518,0,0,2.8869,2.8839,2.8837,2.8806,2.8783,2.8776,2.8728,2.8722,2.8716,2.8657,2.8653,2.8628,2.8594,2.8598,2.8597,2.8579,2.8616,2.8596,2.8602,2.8601,2.8603,2.8611,2.8619,2.852,2.852,2.852,0,0,2.8926,2.8903,2.8909,2.8888,2.8855,2.8824,2.8826,2.8783,2.8765,2.8759,2.8715,2.8706,2.8681,2.8659,2.8644,2.8692,2.8659,2.8687,2.8729,2.8733,2.874,2.8746,2.8764,2.877,2.869,2.869,2.869,0,2.8972,2.896,2.8916,2.8914,2.8901,2.8848,2.8854,2.8835,2.8798,2.8789,2.8769,2.8736,2.8709,2.8707,2.8719,2.8709,2.8708,2.8693,2.8743,2.8748,2.8753,2.8769,2.8776,2.8694,2.8694,2.8693,2.8693,0,2.9018,2.9011,2.902,2.8987,2.8974,2.8976,2.8931,2.8924,2.8895,2.8866,2.886,2.8827,2.8802,2.8799,2.877,2.8792,2.8782,2.8753,2.8717,2.8766,2.8781,2.8786,2.87,2.8698,2.8697,2.8696,0,0,2.9118,2.906,2.9064,2.9048,2.9007,2.9,2.8998,2.8976,2.897,2.8946,2.8943,2.8922,2.8895,2.8879,2.8847,2.885,2.8891,2.882,2.8819,2.8835,2.8913,2.8936,2.8944,2.8868,2.8869,2.887,2.8916,0,2.9169,2.9165,2.9125,2.9132,2.9124,2.9074,2.9072,2.9046,2.9019,2.9007,2.8976,2.8963,2.8928,2.8917,2.8919,2.8886,2.8906,2.8881,2.8864,2.8864,2.8876,2.8951,2.8975,2.9021,2.8921,2.8922,2.8923,0,2.9228,2.9208,2.9215,2.9174,2.9169,2.9169,2.9144,2.9134,2.9103,2.9082,2.9064,2.9028,2.9022,2.8988,2.8979,2.8963,2.8953,2.8936,2.8937,2.8934,2.8898,2.8952,2.9034,2.9042,2.8931,2.893,2.893,0,2.9301,2.9276,2.9277,2.9265,2.9216,2.9217,2.9197,2.9164,2.9153,2.9131,2.9123,2.91,2.9087,2.9069,2.9027,2.9006,2.9023,2.8985,2.9006,2.9007,2.9013,2.9013,2.9096,2.9005,2.9005,2.9004,2.9004,0,2.9363,2.9369,2.9309,2.931,2.9315,2.9268,2.9274,2.9248,2.922,2.9214,2.9167,2.9162,2.9107,2.9095,2.9061,2.9059,2.9053,2.9036,2.9027,2.9041,2.9043,2.9035,2.9031,2.9006,2.9006,2.9005,2.9005,0,2.9447,2.9407,2.9405,2.9359,2.9347,2.9353,2.9313,2.9312,2.9281,2.9274,2.9269,2.9221,2.9204,2.916,2.9132,2.9109,2.9116,2.9099,2.9128,2.9123,2.9146,2.9145,2.9227,2.9235,2.9138,2.9139,2.914,0,2.9489,2.9493,2.9448,2.9441,2.9423,2.9413,2.9401,2.9354,2.9343,2.9308,2.931,2.929,2.9272,2.9248,2.9209,2.9187,2.917,2.92,2.9166,2.918,2.9171,2.9172,2.9172,2.9208,2.9209,2.921,2.9211,0,2.957,2.955,2.9535,2.9514,2.9502,2.9483,2.946,2.9457,2.9404,2.9394,2.9378,2.9363,2.9335,2.9316,2.9287,2.9264,2.9229,2.9222,2.9226,2.924,2.9257,2.9249,2.9149,2.9221,2.922,2.9219,2.9218,2.9218,2.9634,2.9636,2.9604,2.959,2.9568,2.9548,2.9545,2.9514,2.9499,2.9474,2.9446,2.9432,2.9399,2.9358,2.9338,2.9325,2.9307,2.9312,2.9313,2.9316,2.9322,2.9258,2.932,2.9319,2.9319,2.9319,2.9318,0,2.9713,2.969,2.9677,2.9648,2.9637,2.9605,2.9578,2.957,2.956,2.9533,2.9516,2.9496,2.9477,2.9437,2.9413,2.9411,2.9394,2.9407,2.9407,2.9402,2.934,2.9339,2.9421,2.9421,2.9421,2.9421,2.9421,2.9421,2.9753,2.9753,2.9729,2.9718,2.9694,2.9682,2.967,2.9651,2.9629,2.961,2.9594,2.9568,2.9535,2.9509,2.949,2.9478,2.9472,2.949,2.9473,2.9416,2.9406,2.9397,2.9397,2.9489,2.9489,2.9537,2.9537,2.9537]}]]